STARLINK-31624 (59532 NORAD) Tracking and Keplerian Element Data

This shows tracking and keplerian element data for the satellite.

Feedback or suggestion? Click here.




ElementValue
Catalog59532
NameSTARLINK-31624
Epoch Orbit912
Epoch Day159.6173755
Epoch Year2024
RAAN3.1359
Inclination43.0019
Eccentricity0.0001884
Argument of Perigee286.0894
Mean Anonmoly73.9755
Mean Motion15.40683414
Decay Rate-3.027E-05
L11 59532U 24073X 24159.61737550 -.00003027 00000+0 -65266-4 0 9997
L22 59532 43.0019 3.1359 0001884 286.0894 73.9755 15.40683414 9126



Live tracking and technical data element details for STARLINK-31624 (NORAD 59532). STARLINK-31624 can be tracked NOW for your location showing map with azimuth and elevation plus other details from your city location.







IsCatalogInMostPopularTable: catalog: 59532, numindb: 11
Update: records affected: 1



GetName: 59532 STARLINK-31624

Hit Count: updated at: Fri, 14 Jun 2024 19:42:03 GMT